This is the latest recevied weather packets stored in our database for station/object F6BIJ-13. If no packets are shown the sender has not sent any weather packets the latest 10 day(s).
| Time | Temp. | Humidity | Pressure | Rain* | Wind** | Luminosity | Snow |
|---|---|---|---|---|---|---|---|
| 1777628557 | 19.44° C | 51% | 1024.9 hPa | 0 mm | - | - | - |
| 1777628197 | 20° C | 49% | 1024.9 hPa | 0 mm | - | - | - |
| 1777627837 | 19.44° C | 54% | 1024.9 hPa | 0 mm | - | - | - |
| 1777627476 | 18.89° C | 55% | 1024.9 hPa | 0 mm | - | - | - |
| 1777627117 | 18.89° C | 48% | 1024.9 hPa | 0 mm | - | - | - |
| 1777626757 | 18.33° C | 51% | 1025 hPa | 0 mm | - | - | - |
| 1777626397 | 18.33° C | 48% | 1024.9 hPa | 0 mm | - | - | - |
| 1777626037 | 17.78° C | 49% | 1025 hPa | 0 mm | - | - | - |
| 1777625677 | 17.78° C | 47% | 1024.9 hPa | 0 mm | - | - | - |
| 1777625317 | 18.33° C | 46% | 1025 hPa | 0 mm | - | - | - |
| 1777624957 | 17.78° C | 47% | 1025 hPa | 0 mm | - | - | - |
| 1777624597 | 18.33° C | 48% | 1025 hPa | 0 mm | - | - | - |
| 1777624237 | 18.33° C | 48% | 1024.9 hPa | 0 mm | - | - | - |
| 1777623876 | 18.33° C | 46% | 1024.9 hPa | 0 mm | - | - | - |
| 1777623517 | 17.22° C | 44% | 1025 hPa | 0 mm | - | - | - |
| 1777623157 | 17.22° C | 45% | 1025 hPa | 0 mm | - | - | - |
| 1777622797 | 17.22° C | 47% | 1025 hPa | 0 mm | - | - | - |
| 1777622436 | 17.22° C | 47% | 1025 hPa | 0 mm | - | - | - |
| 1777622077 | 16.67° C | 48% | 1025.1 hPa | 0 mm | - | - | - |
| 1777621717 | 16.11° C | 48% | 1025 hPa | 0 mm | - | - | - |
| 1777621357 | 16.11° C | 45% | 1025 hPa | 0 mm | - | - | - |
| 1777620997 | 16.67° C | 44% | 1025 hPa | 0 mm | - | - | - |
| 1777620637 | 16.67° C | 44% | 1025 hPa | 0 mm | - | - | - |
| 1777620277 | 16.67° C | 47% | 1025 hPa | 0 mm | - | - | - |
| 1777619917 | 16.67° C | 46% | 1025.1 hPa | 0 mm | - | - | - |
* Rain latest 24 hours (hover to see other rain measurements)
** Current wind speed in m/s (hover to see current wind gust speed)